Regional Weather Roundup
Issued by NWS

Home | Current Version | Previous Version | Text Only | Print | Product List | Glossary Off
Versions: 1 2 3 4 5 6 7 8 9 10 11 12 13 14 15 16 17 18 19 20 21 22 23 24 25 26 27 28 29 30 31 32 33 34 35 36 37 38 39 40 41 42 43 44 45 46 47 48 49 50

000
ASUS43 KOAX 240710
RWRNE

WEATHER ROUNDUP FOR NEBRASKA
NATIONAL WEATHER SERVICE OMAHA NE
200 AM CDT SUN SEP 24 2017

NOTES: SATELLITE DATA IS BEING USED TO AUGMENT CLOUD COVER ABOVE
       12000 FEET.
       "FAIR" INDICATES FEW OR NO CLOUDS BELOW 12,000 FEET WITH NO
       SIGNIFICANT WEATHER AND/OR OBSTRUCTIONS TO VISIBILITY.


NEZ001>004-019>022-054>056-240800-
NEBRASKA PANHANDLE

CITY           SKY/WX    TMP DP  RH WIND       PRES   REMARKS
SCOTTSBLUFF    LGT RAIN  46  43  89 S3        29.96S
ALLIANCE       LGT RAIN  45  43  93 N8        29.96F
CHADRON        LGT RAIN  46  44  93 NE9       29.97F
GORDON         DRIZZLE   46  45  95 N9        29.95F
KIMBALL        RAIN      43  43 100 NE5       29.98R
SIDNEY         LGT RAIN  44  43  96 NE12      29.94F
$$

NEZ057>060-069>072-079>082-240800-
SOUTHWEST NEBRASKA

CITY           SKY/WX    TMP DP  RH WIND       PRES   REMARKS
NORTH PLATTE   RAIN      53  53 100 N3        29.90R FOG
IMPERIAL       LGT RAIN  51  49  92 N15       29.91S
LEXINGTON      CLOUDY    58  56  94 NE5       29.87F
MCCOOK         CLOUDY    58  58 100 E9        29.84F
OGALLALA       DRIZZLE   50  49  94 N12       29.93F
$$

NEZ005>010-023>029-035>040-094-240800-
NORTH CENTRAL NEBRASKA

CITY           SKY/WX    TMP DP  RH WIND       PRES   REMARKS
VALENTINE      LGT RAIN  51  50  96 N6        29.93R
AINSWORTH      RAIN      50  50 100 N5        29.91F
BROKEN BOW     LGT RAIN  54  54 100 N6        29.90S
O`NEILL        CLOUDY    54  54 100 NW7       29.90S FOG
ORD            CLOUDY    58  55  90 N5        29.88F
THEDFORD       RAIN      50  49  97 NW6       29.93S
$$

NEZ041-046>049-061>064-073>077-083>087-240800-
SOUTH CENTRAL NEBRASKA

CITY           SKY/WX    TMP DP  RH WIND       PRES   REMARKS
GRAND ISLAND   CLOUDY    70  63  78 SE10      29.87F
AURORA         PTCLDY    68  62  80 SE8       29.88S
HASTINGS       CLOUDY    73  60  63 S10       29.88S
HEBRON         MOCLDY    74  62  67 S7        29.89S
HOLDREGE       CLOUDY    59  57  94 N3        29.88S
KEARNEY        CLOUDY    60  58  92 NE6       29.88F
YORK           PTCLDY    72  63  73 S8        29.89F
$$

NEZ011>018-030>034-042>045-240800-
NORTHEAST NEBRASKA

CITY           SKY/WX    TMP DP  RH WIND       PRES   REMARKS
NORFOLK        CLEAR     57  57 100 SE7       29.87F
ALBION         MOCLDY    57  56  96 CALM      29.88S
BLAIR          PTCLDY    76  65  69 S9        29.91S
COLUMBUS       CLEAR     74  63  68 S9G17     29.89R
FREMONT        MOCLDY    75  63  67 SE9       29.90S
TEKAMAH        MOCLDY    70  65  84 SE7       29.89S
WAYNE          CLEAR     57  55  91 CALM      29.89F
$$

NEZ050>053-065>068-078-088>093-240800-
SOUTHEAST NEBRASKA

CITY           SKY/WX    TMP DP  RH WIND       PRES   REMARKS
LINCOLN        CLEAR     73  63  70 S10       29.89S
OMAHA EPPLEY   MOCLDY    74  65  73 S10       29.91S
BEATRICE       CLEAR     74  64  69 SE9G16    29.90S
FALLS CITY     CLEAR     69  65  86 SE3       29.92S
NEBRASKA CITY  CLEAR     72  67  87 S8        29.93S
PLATTSMOUTH    PTCLDY    72  67  84 SE8       29.92S
$$

NEZ044-045-051>053-067-240800-
OMAHA AREA

CITY           SKY/WX    TMP DP  RH WIND       PRES   REMARKS
OMAHA EPPLEY   MOCLDY    74  65  73 S10       29.91S
BLAIR          PTCLDY    76  65  69 S9        29.91S
FREMONT        MOCLDY    75  63  67 SE9       29.90S
MILLARD        CLOUDY    74  67  76 SE5       29.91S
OFFUTT AFB     PTCLDY    70  65  84 E7        29.91S
PLATTSMOUTH    PTCLDY    72  67  84 SE8       29.92S
WAHOO          FAIR      72  64  75 SE7       29.90S
$$



USA.gov is the U.S. government's official web portal to all federal, state and local government web resources and services.